カタログに戻る

COSMOS 1579 COOLANT

LostLEO
NORAD 27739·DEBRIS·🇷🇺 Russia

打ち上げ Jun 29, 1984 から Baikonur Cosmodrome

Loading…

次のパス (今後24時間)

TLE

古いSource: Space-Track

元期: Nov 23, 2023, 05:01 UTC

1 27739U 84069Z   23327.20903475  .00000249  00000-0  26615-3 0  9990
2 27739  65.0492 178.2447 0054653 312.2293  47.4140 13.91167110 92588

AllMySatでCOSMOS 1579 COOLANTをリアルタイム追跡

Download on the App Store